Flag for Italy

Past Weather in Latiano, Italy — Yesterday and Last 2 Weeks

Now
77 °F

Passing clouds.


Feels Like: 79 °F
Forecast: 82 / 64 °F
Wind: 18 mph from South

Location: Brindisi Airport
Current Time: Sep 23, 2020 at 7:30:12 pm
Latest Report: Sep 23, 2020 at 6:50 pm
Visibility: N/A
Pressure29.86 "Hg
Humidity: 69%
Dew Point: 66 °F
Location of LatianoLocation

Past Weather in Latiano — Graph

°F

Latiano Temperature Yesterday

Maximum temperature yesterday: 86 °F (at 1:20 pm)
Minimum temperature yesterday: 70 °F (at 6:20 am)
Average temperature yesterday: 78 °F

High & Low Weather Summary for the Past Weeks

 TemperatureHumidityPressure
High86 °F (Sep 22, 1:20 pm)94% (Sep 13, 2:20 am)30.18 "Hg (Sep 13, 2:20 am)
Low64 °F (Sep 21, 5:50 am)40% (Sep 22, 1:20 pm)29.83 "Hg (Sep 11, 2:20 am)
Average78 °F77%29.98 "Hg
* Reported Sep 8 6:20 pm — Sep 23 6:20 pm, Latiano. Weather by CustomWeather, © 2020

Note: Actual official high and low records may vary slightly from our data, if they occured in-between our weather recording intervals... More about our weather records

Latiano Weather History for the Previous 24 Hours

Scroll right to see more
 ConditionsComfort  
Time TempWeatherWind HumidityBarometerVisibility
6:20 pm
Wed, Sep 23
79 °FPassing clouds.13 mph65%29.83 "HgN/A
5:50 pm81 °FPassing clouds.14 mph62%29.83 "HgN/A
5:20 pm81 °FPassing clouds.14 mph66%29.86 "HgN/A
4:50 pm82 °FPassing clouds.15 mph58%29.83 "HgN/A
4:20 pm82 °FPassing clouds.14 mph62%29.86 "HgN/A
3:50 pm82 °FScattered clouds.15 mph58%29.86 "HgN/A
3:20 pm82 °FScattered clouds.13 mph58%29.86 "HgN/A
2:50 pm84 °FWarm.15 mph55%29.86 "HgN/A
1:50 pm81 °FWarm.16 mph62%29.89 "HgN/A
1:20 pm81 °FThunderstorms. Passing clouds.17 mph62%29.89 "HgN/A
12:50 pm79 °FThundershowers. Partly sunny.12 mph70%29.89 "HgN/A
12:20 pm77 °FPartly sunny.14 mph79%29.92 "HgN/A
11:50 am77 °FPartly sunny.16 mph74%29.92 "Hg5 mi
11:20 am77 °FPassing clouds.14 mph79%29.95 "Hg6 mi
10:50 am79 °FScattered clouds.14 mph74%29.95 "HgN/A
10:20 am79 °FPassing clouds.10 mph79%29.92 "HgN/A
9:50 am79 °FWarm.6 mph70%29.92 "HgN/A
9:20 am79 °FWarm.3 mph70%29.92 "HgN/A
8:50 am77 °FWarm.1 mph74%29.92 "HgN/A
7:50 am72 °FMild.6 mph83%29.92 "HgN/A
7:20 am72 °FMild.3 mph83%29.89 "HgN/A
6:50 am72 °FMild.3 mph78%29.92 "HgN/A
6:20 am72 °FMild.5 mph83%29.89 "HgN/A
5:50 am73 °FMild.8 mph78%29.92 "HgN/A
5:20 am72 °FPassing clouds.3 mph83%29.92 "HgN/A
4:50 am73 °FPassing clouds.5 mph83%29.92 "HgN/A
4:20 am73 °FPartly cloudy.6 mph89%29.92 "HgN/A
3:50 am75 °FPassing clouds.6 mph83%29.92 "HgN/A
3:20 am75 °FPassing clouds.6 mph83%29.92 "HgN/A
2:20 am75 °FPassing clouds.8 mph89%29.92 "HgN/A
1:50 am75 °FMild.12 mph89%29.92 "HgN/A
1:20 am75 °FMild.10 mph89%29.92 "HgN/A
12:50 am75 °FMild.14 mph89%29.92 "HgN/A
12:20 am75 °FMild.12 mph89%29.92 "HgN/A
11:50 pm
Tue, Sep 22
77 °FWarm.12 mph83%29.92 "HgN/A
11:20 pm75 °FMild.9 mph89%29.95 "HgN/A
10:50 pm77 °FPassing clouds.12 mph79%29.95 "HgN/A
10:20 pm77 °FPassing clouds.12 mph79%29.95 "HgN/A
9:50 pm77 °FPassing clouds.10 mph79%29.95 "HgN/A
9:20 pm77 °FPassing clouds.12 mph79%29.95 "HgN/A
8:20 pm77 °FPassing clouds.13 mph79%29.95 "HgN/A
7:50 pm79 °FPassing clouds.12 mph74%29.98 "HgN/A
7:20 pm79 °FPassing clouds.12 mph74%29.98 "HgN/A
Weather by CustomWeather, © 2020

See weather overview